Weather History for Phoenix, AZ

Change the Weather History Date:

Thursday, May 16, 2013

  Actual Average Record
Temperature  
Mean Temperature 87 °F 82 °F  
Max Temperature 101 °F 95 °F 106 °F (1997)
Min Temperature 73 °F 70 °F 49 °F (1955)
Degree Days  
Heating Degree Days 0 0  
Month to date heating degree days 0 0  
Since 1 July heating degree days 881 934  
Cooling Degree Days 22 17  
Month to date cooling degree days 286 239  
Year to date cooling degree days 790 594  
Growing Degree Days 36 (Base 50)    
Moisture  
Dew Point 27 °F    
Average Humidity 15    
Maximum Humidity 25    
Minimum Humidity 5    
Precipitation  
Precipitation 0.00 in 0.00 in 0.08 in (1949)
Month to date precipitation 0.00 0.06  
Year to date precipitation 2.61 3.16  
Snow  
Snow 0.00 in - - ()
Month to date snowfall 0.0  
Year to date snowfall 0.0  
Since 1 July snowfall 0.0  
Snow Depth 0.00 in    
Sea Level Pressure  
Sea Level Pressure 29.74 in    
Wind  
Wind Speed 9 mph (SSW)    
Max Wind Speed 22 mph    
Max Gust Speed 26 mph    
Visibility 10 miles    
Events      
T = Trace of Precipitation, MM = Missing Value Source: NWS Daily Summary

Daily Weather History Graph

Daily Weather History Graph

Search for Another Location

Airport:

Trip Planner

Search our weather history database for the weather conditions in past years. The results will help you decide how hot, cold, wet, or windy it might be!

Date:

Astronomy

May. 16, 2013 Rise Set
Actual Time 5:26 AM MST 7:22 PM MST
Civil Twilight 4:59 AM MST 7:49 PM MST
Nautical Twilight 4:26 AM MST 8:23 PM MST
Astronomical Twilight 3:50 AM MST 8:58 PM MST
Moon 10:58 AM MST (5/16) No Moon Set
Length of Visible Light 14h 50m
Length of Day
13h 55m
Waxing Crescent, 36% of the Moon is Illuminated
May 16
Waxing Crescent
May 17
First Quarter
May 24
Full
May 31
Last Quarter
Jun 8
New

Hourly Weather History & Observations

Time (MST) Temp. Dew Point Humidity Pressure Visibility Wind Dir Wind Speed Gust Speed Precip Events Conditions
12:51 AM 82.0 °F 36.0 °F 19% 29.76 in 10.0 mi WSW 3.5 mph - N/A   Clear
1:51 AM 84.0 °F 35.1 °F 17% 29.76 in 10.0 mi WNW 6.9 mph - N/A   Clear
2:51 AM 79.0 °F 39.0 °F 24% 29.77 in 10.0 mi ESE 5.8 mph - N/A   Clear
3:51 AM 75.9 °F 37.0 °F 24% 29.78 in 10.0 mi East 8.1 mph - N/A   Clear
4:51 AM 75.0 °F 35.1 °F 23% 29.79 in 10.0 mi East 6.9 mph - N/A   Partly Cloudy
5:51 AM 73.9 °F 35.1 °F 24% 29.80 in 10.0 mi East 8.1 mph - N/A   Partly Cloudy
6:51 AM 75.9 °F 34.0 °F 22% 29.81 in 10.0 mi East 10.4 mph - N/A   Partly Cloudy
7:51 AM 80.1 °F 36.0 °F 20% 29.83 in 10.0 mi East 8.1 mph - N/A   Partly Cloudy
8:51 AM 84.0 °F 37.0 °F 19% 29.82 in 10.0 mi ESE 8.1 mph - N/A   Partly Cloudy
9:51 AM 88.0 °F 37.0 °F 16% 29.81 in 10.0 mi SSE 8.1 mph - N/A   Partly Cloudy
10:51 AM 91.9 °F 35.1 °F 13% 29.80 in 10.0 mi Variable 3.5 mph - N/A   Partly Cloudy
11:51 AM 93.9 °F 32.0 °F 11% 29.78 in 10.0 mi South 5.8 mph - N/A   Partly Cloudy
12:51 PM 98.1 °F 30.0 °F 9% 29.75 in 10.0 mi South 10.4 mph 16.1 mph N/A   Partly Cloudy
1:51 PM 99.0 °F 30.0 °F 9% 29.72 in 10.0 mi WSW 9.2 mph - N/A   Partly Cloudy
2:51 PM 99.0 °F 23.0 °F 7% 29.69 in 10.0 mi West 10.4 mph 17.3 mph N/A   Partly Cloudy
3:51 PM 100.9 °F 17.1 °F 5% 29.66 in 10.0 mi SW 10.4 mph 25.3 mph N/A   Partly Cloudy
4:51 PM 100.0 °F 18.0 °F 5% 29.65 in 10.0 mi West 16.1 mph 23.0 mph N/A   Partly Cloudy
5:51 PM 99.0 °F 18.0 °F 5% 29.64 in 10.0 mi West 19.6 mph 23.0 mph N/A   Clear
6:51 PM 97.0 °F 14.0 °F 5% 29.64 in 10.0 mi West 18.4 mph - N/A   Clear
7:51 PM 93.0 °F 12.0 °F 5% 29.66 in 10.0 mi WSW 10.4 mph - N/A   Partly Cloudy
8:51 PM 90.0 °F 15.1 °F 6% 29.68 in 10.0 mi WSW 9.2 mph - N/A   Partly Cloudy
9:51 PM 87.1 °F 14.0 °F 7% 29.70 in 10.0 mi WSW 5.8 mph - N/A   Clear
10:51 PM 84.9 °F 15.1 °F 7% 29.70 in 10.0 mi South 4.6 mph - N/A   Clear
11:51 PM 82.0 °F 19.9 °F 10% 29.71 in 10.0 mi East 5.8 mph - N/A   Clear